Weather in Martynovka

Russia / Kurgan Oblast     54°54′47″N   62°29′09″E
В апреле 2022 года жителям России запретили посещать сайт meteo.paraplan.net по решению Генеральной прокуратуры. Аудитория сайта уменьшилась в 10 раз. Владельцы сайта не видят смысла в поддержке погодного сервера в таких условиях. Сайт будет закрыт в октябре.
temp.,
°C
wind,
m/s
gust,
m/s
humid.,
%
clouds,
%
prec.,
mm/h
press.,
hPa
HPBL,
m
30 september, fri
fri3023:00−1ese48675 0.0 1031152
02:00−3se49764 0.0 1032189
05:00−4se38771 0.0 1033154
08:00−3se38690 0.0 1034211
11:00+3se55442 0.0 1035955
14:00+5se44425 0.0 10351286
17:00+4se44435 0.0 10351136
20:00+1ese46574 0.0 1036109
1 october, sat
sat123:00−1se48605 0.0 1037151
02:00−1se38595 0.0 1037158
05:00−2sse38585 0.0 1037152
08:00−1sse48545 0.0 1037218
11:00+5s563440 0.0 1037639
14:00+8s56295 0.0 10351193
17:00+9s463136 0.0 10341201
20:00+4sse484255 0.0 1034129
2 october, sun
sun223:00+5s4103754 0.0 1033254
02:00+6s5103583 0.0 1032323
05:00+6s51133100 0.0 1032376
08:00+6s5113392 0.0 1032401
11:00+10s792972 0.0 1031742
14:00+8s61030100 0.0 1031623
17:00+10s693065 0.0 1030678
20:00+8s5103192 0.0 1029397
3 october, mon
mon323:00+8s51132100 0.0 1029405
02:00+8s51133100 0.0 1028380
05:00+8s51034100 0.0 1028347
08:00+7s6113390 0.0 1028317
11:00+11s61027100 0.0 1028555
14:00+14ssw682646 0.0 1028821
17:00+14ssw58316 0.0 1027586
20:00+9s4104277 0.0 1029170
4 october, tue
tue423:00+7ssw4104231 0.0 1030166
02:00+8ssw4104239 0.0 1030218
05:00+6ssw4749100 0.0 1031131
08:00+6ssw485049 0.0 1032170
11:00+12sw563621 0.0 1033432
14:00+16ssw45305 0.0 1033803
17:00+15ssw35325 0.0 1033203
20:00+11ssw45390 0.0 103564